Flag for Canada Weather past 2 weeks in Thunder Bay, Ontario, Canada

41 °F


Feels Like: 37 °F
Forecast: 20 / 34 °F
Wind: 6 mph from West

Location: Thunder Bay

Current Time: Nov 25, 2015 at 8:09:46 PM

Latest Report: Nov 25, 2015 at 7:00 PM

Visibility: 10 mi

Pressure: 29.93 "Hg

Humidity: 81%

Dew point: 36 °F

Location of Thunder BayLocation

Historic Weather in Thunder Bay — Graph


Thunder Bay temperature yesterday

Maximum temperature yesterday: 36 °F (at 3:00 PM)
Minimum temperature yesterday: 14 °F (at 5:00 AM)
Average temperature yesterday: 27 °F

Past Weeks' High & Low Weather Summary

High57 °F (Nov 18, 4:00 PM)100% (Nov 11, 1:00 AM)30.33 "Hg (Nov 11, 1:00 AM)
Low14 °F (Nov 21, 8:00 AM)43% (Nov 21, 2:00 PM)29.03 "Hg (Nov 18, 9:00 PM)
Average35 °F83%29.86 "Hg
* Reported Nov 10 7:00 PM — Nov 25 7:00 PM, Thunder Bay, Weather by CustomWeather, © 2015

Note: Actual official high and low records may vary slightly from our data, if they occured in-between our weather recording intervals... More about our weather records


Thunder Bay weather history for previous 24 hours

Time TempWeatherWind HumidityBarometerVisibility
7:00 PM
Wed, Nov 25
41 °FOvercast.6 mph81%29.93 "Hg10 mi
6:00 PM41 °FMostly cloudy.7 mph81%29.90 "Hg10 mi
5:00 PM41 °FMostly cloudy.7 mph81%29.87 "Hg12 mi
4:00 PM41 °FMore clouds than sun.7 mph81%29.86 "Hg8 mi
3:00 PM41 °FOvercast.8 mph81%29.86 "Hg12 mi
2:00 PM41 °FMostly cloudy.6 mph81%29.88 "Hg12 mi
1:00 PM41 °FCloudy.6 mph81%29.88 "Hg12 mi
12:00 PM41 °FOvercast.6 mph81%29.90 "Hg20 mi
11:00 AM39 °FOvercast.3 mph87%29.94 "Hg20 mi
10:00 AM39 °FMostly cloudy.7 mph87%29.94 "Hg20 mi
9:00 AM39 °FMostly cloudy.13 mph81%29.95 "Hg20 mi
8:00 AM37 °FOvercast.9 mph87%30.01 "Hg20 mi
7:00 AM37 °FMostly cloudy.8 mph81%30.03 "Hg15 mi
6:00 AM37 °FMostly cloudy.12 mph81%30.06 "Hg15 mi
5:01 AM36 °FMostly cloudy.13 mph81%30.09 "Hg15 mi
4:00 AM36 °FOvercast.9 mph75%30.12 "Hg15 mi
3:00 AM36 °FOvercast.10 mph75%30.16 "Hg15 mi
2:00 AM36 °FPassing clouds.13 mph75%30.18 "Hg15 mi
1:00 AM36 °FMostly cloudy.14 mph70%30.21 "Hg15 mi
12:00 AM36 °FMostly cloudy.12 mph70%30.23 "Hg15 mi
11:00 PM
Tue, Nov 24
36 °FMostly cloudy.12 mph65%30.24 "Hg15 mi
10:00 PM36 °FPartly cloudy.12 mph65%30.26 "Hg15 mi
9:00 PM36 °FOvercast.13 mph65%30.27 "Hg15 mi
8:00 PM34 °FOvercast.8 mph75%30.27 "Hg15 mi
Weather by CustomWeather, © 2015

See weather overviewHow to use our weather pages